Tracking 21094 objects as of 11-Aug-2020
HD Live streaming from Space Station
objects crossing your sky now
Track the most recent launched group of Starlink satellites

FLOCK 3P 14

Track FLOCK 3P 14 now!
10-day predictions
FLOCK 3P 14 is classified as:


NORAD ID: 42012
Int'l Code: 2017-008BS
Perigee: 487.8 km
Apogee: 499.9 km
Inclination: 97.4 °
Period: 94.3 minutes
Semi major axis: 6864 km
RCS: Unknown
Launch date: February 15, 2017
Source: United States (US)
Launch site: SRIHARIKOTA (SRI)
aabbcc
Your satellite tracking list
Your tracking list is empty




NASA's NSSDC Master Catalog

Two Line Element Set (TLE):
1 42012U 17008BS  20224.15246005  .00001057  00000-0  43407-4 0  9993
2 42012  97.3641 291.3907 0008848 121.0124 239.1985 15.26365249193734
Source of the keplerian elements: AFSPC